Altoona, PA

6:43 PM EDT on August 22, 2019 (GMT -0400)
Altoona-Blair County

Weather History for KAOO - May, 2019

Change the Weather History Date:

Tuesday, May 7, 2019

  Actual Average Record
Temperature  
Mean Temperature 63 °F 56 °F  
Max Temperature 77 °F 67 °F 84 °F (2000)
Min Temperature 48 °F 44 °F 27 °F (1989)
Degree Days  
Heating Degree Days 2 10  
Month to date heating degree days 19 74  
Since 1 July heating degree days 5573 5992  
Cooling Degree Days 0 0  
Month to date cooling degree days 8 0  
Year to date cooling degree days 8 6  
Growing Degree Days 12 (Base 50)    
Moisture  
Dew Point 49 °F    
Average Humidity 64    
Maximum Humidity 86    
Minimum Humidity 41    
Precipitation  
Precipitation 0.00 in 0.12 in 1.22 in (1958)
Month to date precipitation 1.89 0.80  
Year to date precipitation 14.70 11.27  
Sea Level Pressure  
Sea Level Pressure 30.11 in    
Wind  
Wind Speed 5 mph (WSW)    
Max Wind Speed 13 mph    
Max Gust Speed 16 mph    
Visibility 10 miles    
Events      
T = Trace of Precipitation, MM = Missing Value Source: NWS Daily Summary

Daily Weather History Graph

Daily Weather History Graph

Search for Another Location

Airport or City:

Astronomy

May. 07, 2019 Rise Set
Actual Time 6:05 AM EDT 8:14 PM EDT
Civil Twilight 5:35 AM EDT 8:44 PM EDT
Nautical Twilight 4:59 AM EDT 9:21 PM EDT
Astronomical Twilight 4:18 AM EDT 10:01 PM EDT
Moon 8:10 AM EDT (5/7) 11:13 PM EDT (5/7)
Length of Visible Light 15h 08m
Length of Day
14h 08m
Waxing Crescent, 8% of the Moon is Illuminated
May 7
Waxing Crescent
May 11
First Quarter
May 18
Full
May 26
Last Quarter
Jun 3
New

Hourly Weather History & Observations

Time (EDT) Temp. Dew Point Humidity Pressure Visibility Wind Dir Wind Speed Gust Speed Precip Events Conditions
12:53 AM 55.9 °F 46.9 °F 72% 30.11 in 10.0 mi WSW 4.6 mph - N/A   Clear
1:53 AM 55.0 °F 46.0 °F 72% 30.11 in 10.0 mi SSW 8.1 mph - N/A   Clear
2:53 AM 55.0 °F 45.0 °F 69% 30.11 in 10.0 mi SW 3.5 mph - N/A   Clear
3:53 AM 53.1 °F 46.9 °F 80% 30.10 in 10.0 mi Calm Calm - N/A   Clear
4:53 AM 55.0 °F 45.0 °F 69% 30.09 in 10.0 mi Calm Calm - N/A   Clear
5:53 AM 48.0 °F 44.1 °F 86% 30.11 in 10.0 mi WNW 4.6 mph - N/A   Clear
6:53 AM 53.1 °F 46.9 °F 80% 30.12 in 10.0 mi Calm Calm - N/A   Clear
7:53 AM 59.0 °F 48.9 °F 69% 30.14 in 10.0 mi WSW 3.5 mph - N/A   Clear
8:53 AM 63.0 °F 50.0 °F 63% 30.14 in 10.0 mi SSW 5.8 mph - N/A   Clear
9:53 AM 68.0 °F 53.1 °F 59% 30.14 in 10.0 mi South 4.6 mph - N/A   Clear
10:53 AM 71.1 °F 52.0 °F 51% 30.14 in 10.0 mi South 6.9 mph - N/A   Clear
11:53 AM 72.0 °F 51.1 °F 48% 30.15 in 10.0 mi South 5.8 mph - N/A   Clear
12:53 PM 73.9 °F 52.0 °F 46% 30.14 in 10.0 mi South 9.2 mph - N/A   Partly Cloudy
1:53 PM 73.0 °F 52.0 °F 48% 30.13 in 10.0 mi SSW 6.9 mph - N/A   Partly Cloudy
2:53 PM 75.9 °F 52.0 °F 43% 30.10 in 10.0 mi Variable 4.6 mph - N/A   Partly Cloudy
3:53 PM 73.9 °F 48.9 °F 41% 30.09 in 10.0 mi WSW 5.8 mph - N/A   Scattered Clouds
4:53 PM 75.9 °F 50.0 °F 40% 30.08 in 10.0 mi Variable 4.6 mph - N/A   Scattered Clouds
5:53 PM 75.9 °F 50.0 °F 40% 30.09 in 10.0 mi Variable 3.5 mph - N/A   Overcast
6:53 PM 73.9 °F 48.0 °F 40% 30.09 in 10.0 mi NW 6.9 mph - N/A   Clear
7:53 PM 71.1 °F 46.9 °F 42% 30.09 in 10.0 mi NNW 3.5 mph - N/A   Partly Cloudy
8:53 PM 69.1 °F 48.9 °F 49% 30.10 in 10.0 mi Calm Calm - N/A   Clear
9:53 PM 66.0 °F 52.0 °F 60% 30.11 in 10.0 mi NW 3.5 mph - N/A   Mostly Cloudy
10:53 PM 62.1 °F 53.1 °F 72% 30.13 in 10.0 mi NNE 6.9 mph - N/A   Partly Cloudy
11:53 PM 61.0 °F 53.1 °F 75% 30.14 in 10.0 mi NNE 9.2 mph - N/A   Clear